Weather History for Bentonville, AR

Change the Weather History Date:

Saturday, June 1, 2013

  Actual Average Record
Temperature  
Mean Temperature 70 °F -  
Max Temperature 77 °F 77 °F 92 °F (1951)
Min Temperature 60 °F 56 °F 40 °F (1983)
Cooling Degree Days 4    
Growing Degree Days 20 (Base 50)    
Moisture  
Dew Point 61 °F    
Average Humidity 78    
Maximum Humidity 94    
Minimum Humidity 57    
Precipitation  
Precipitation 0.41 in - - ()
Sea Level Pressure  
Sea Level Pressure 29.86 in    
Wind  
Wind Speed 11 mph (West)    
Max Wind Speed 28 mph    
Max Gust Speed 38 mph    
Visibility 10 miles    
Events Thunderstorm    
Averages and records for this station are not official NWS values.
T = Trace of Precipitation, MM = Missing Value Source: NWS Daily Summary

Daily Weather History Graph

Daily Weather History Graph

Search for Another Location

Airport:

Trip Planner

Search our weather history database for the weather conditions in past years. The results will help you decide how hot, cold, wet, or windy it might be!

Date:

Astronomy

Jun. 01, 2013 Rise Set
Actual Time 6:00 AM CDT 8:29 PM CDT
Civil Twilight 5:30 AM CDT 8:59 PM CDT
Nautical Twilight 4:53 AM CDT 9:36 PM CDT
Astronomical Twilight 4:12 AM CDT 10:17 PM CDT
Moon 1:45 AM CDT (6/1) 2:09 PM CDT (6/1)
Length of Visible Light 15h 28m
Length of Day
14h 28m
Last Quarter, 40% of the Moon is Illuminated
Jun 1
Last Quarter
Jun 8
New
Jun 16
First Quarter
Jun 23
Full
Jun 29
Last Quarter

Hourly Weather History & Observations

Time (CDT) Temp. Dew Point Humidity Pressure Visibility Wind Dir Wind Speed Gust Speed Precip Events Conditions
12:15 AM 77.0 °F 69.8 °F 78% 29.78 in 10.0 mi South 6.9 mph - N/A   Partly Cloudy
12:35 AM 77.0 °F 69.8 °F 78% 29.75 in 10.0 mi South 11.5 mph 17.3 mph N/A   Partly Cloudy
12:55 AM 75.2 °F 69.8 °F 83% 29.68 in 10.0 mi SSE 27.6 mph 33.4 mph N/A   Clear
1:15 AM 77.0 °F 69.8 °F 78% 29.70 in 10.0 mi South 19.6 mph 25.3 mph N/A   Clear
1:35 AM 77.0 °F 69.8 °F 78% 29.68 in 10.0 mi South 16.1 mph 27.6 mph N/A   Partly Cloudy
1:55 AM 77.0 °F 69.8 °F 78% 29.71 in 10.0 mi South 20.7 mph 36.8 mph N/A   Scattered Clouds
2:15 AM 73.4 °F 66.2 °F 78% 29.68 in 10.0 mi South 23.0 mph 38.0 mph N/A Thunderstorm Thunderstorm
2:35 AM 71.6 °F 62.6 °F 73% 29.73 in 10.0 mi South 11.5 mph 31.1 mph 0.01 in Thunderstorm Thunderstorm
2:55 AM 71.6 °F 60.8 °F 69% 29.75 in 10.0 mi South 10.4 mph 20.7 mph 0.02 in   Overcast
3:15 AM 71.6 °F 59.0 °F 64% 29.77 in 10.0 mi South 10.4 mph - 0.02 in Thunderstorm Thunderstorm
3:35 AM 68.0 °F 60.8 °F 78% 29.80 in 10.0 mi South 13.8 mph 19.6 mph 0.04 in Thunderstorm Overcast
3:55 AM 66.2 °F 60.8 °F 83% 29.76 in 10.0 mi South 13.8 mph 21.9 mph 0.08 in Thunderstorm Overcast
4:15 AM 66.2 °F 60.8 °F 83% 29.73 in 10.0 mi SSE 11.5 mph - 0.02 in Thunderstorm Overcast
4:35 AM 66.2 °F 60.8 °F 83% 29.75 in 10.0 mi SSE 9.2 mph - 0.05 in Thunderstorm Overcast
4:55 AM 66.2 °F 60.8 °F 83% 29.73 in 10.0 mi SE 9.2 mph - 0.08 in Thunderstorm Thunderstorm
5:15 AM 66.2 °F 60.8 °F 83% 29.82 in 10.0 mi NW 12.7 mph 24.2 mph 0.03 in   Mostly Cloudy
5:35 AM 66.2 °F 62.6 °F 88% 29.86 in 10.0 mi WNW 10.4 mph 17.3 mph 0.08 in Thunderstorm Thunderstorm
5:55 AM 66.2 °F 60.8 °F 83% 29.83 in 10.0 mi North 5.8 mph - 0.15 in Thunderstorm Thunderstorm
6:16 AM 64.4 °F 60.8 °F 88% 29.76 in 9.0 mi ESE 12.7 mph - 0.05 in Thunderstorm Thunderstorm
6:35 AM 64.4 °F 62.6 °F 94% 29.83 in 10.0 mi NNE 6.9 mph 21.9 mph 0.08 in Thunderstorm Mostly Cloudy
6:55 AM 64.4 °F 62.6 °F 94% 29.85 in 7.0 mi West 4.6 mph - N/A Thunderstorm Overcast
7:15 AM 64.4 °F 62.6 °F 94% 29.87 in 9.0 mi WSW 5.8 mph - N/A Thunderstorm Thunderstorm
7:35 AM 64.4 °F 62.6 °F 94% 29.78 in 9.0 mi SE 11.5 mph - N/A   Mostly Cloudy
7:55 AM 64.4 °F 62.6 °F 94% 29.81 in 10.0 mi South 5.8 mph - N/A Thunderstorm Thunderstorm
8:15 AM 64.4 °F 62.6 °F 94% 29.82 in 10.0 mi Calm Calm - N/A   Mostly Cloudy
8:35 AM 64.4 °F 62.6 °F 94% 29.79 in 10.0 mi South 9.2 mph - N/A   Partly Cloudy
8:55 AM 64.4 °F 60.8 °F 88% 29.78 in 10.0 mi SE 6.9 mph - N/A   Clear
9:15 AM 64.4 °F 62.6 °F 94% 29.81 in 10.0 mi Calm Calm - N/A   Clear
9:35 AM 64.4 °F 62.6 °F 94% 29.85 in 10.0 mi WNW 9.2 mph - N/A   Clear
9:56 AM 64.4 °F 62.6 °F 94% 29.87 in 10.0 mi NW 8.1 mph - N/A   Partly Cloudy
10:15 AM 64.4 °F 62.6 °F 94% 29.88 in 10.0 mi NW 6.9 mph - N/A   Mostly Cloudy
10:35 AM 64.4 °F 62.6 °F 94% 29.89 in 10.0 mi WNW 6.9 mph - N/A   Mostly Cloudy
10:55 AM 66.2 °F 62.6 °F 88% 29.89 in 10.0 mi NW 8.1 mph - N/A   Overcast
11:15 AM 66.2 °F 62.6 °F 88% 29.90 in 10.0 mi WNW 8.1 mph - N/A   Overcast
11:36 AM 66.2 °F 62.6 °F 88% 29.91 in 10.0 mi West 6.9 mph - N/A   Overcast
11:55 AM 66.2 °F 62.6 °F 88% 29.92 in 10.0 mi West 10.4 mph - N/A   Overcast
12:15 PM 66.2 °F 62.6 °F 88% 29.91 in 10.0 mi West 10.4 mph - N/A   Overcast
12:35 PM 66.2 °F 62.6 °F 88% 29.91 in 10.0 mi West 8.1 mph - N/A   Overcast
1:15 PM 69.8 °F 62.6 °F 78% 29.92 in 10.0 mi West 8.1 mph - N/A   Overcast
1:35 PM 69.8 °F 62.6 °F 78% 29.91 in 10.0 mi WSW 6.9 mph - N/A   Overcast
2:15 PM 71.6 °F 62.6 °F 73% 29.90 in 10.0 mi SSW 10.4 mph - N/A   Mostly Cloudy
2:35 PM 71.6 °F 64.4 °F 78% 29.91 in 10.0 mi SW 10.4 mph - N/A   Mostly Cloudy
2:55 PM 73.4 °F 64.4 °F 73% 29.90 in 10.0 mi WSW 8.1 mph - N/A   Overcast
3:15 PM 73.4 °F 64.4 °F 73% 29.91 in 10.0 mi SW 8.1 mph - N/A   Mostly Cloudy
3:35 PM 73.4 °F 64.4 °F 73% 29.90 in 10.0 mi SW 10.4 mph - N/A   Mostly Cloudy
3:55 PM 73.4 °F 62.6 °F 69% 29.90 in 10.0 mi WSW 5.8 mph - N/A   Mostly Cloudy
4:16 PM 75.2 °F 62.6 °F 65% 29.90 in 10.0 mi West 10.4 mph - N/A   Scattered Clouds
4:35 PM 75.2 °F 64.4 °F 69% 29.90 in 10.0 mi WSW 10.4 mph - N/A   Mostly Cloudy
4:55 PM 75.2 °F 62.6 °F 65% 29.90 in 10.0 mi West 8.1 mph - N/A   Mostly Cloudy
5:15 PM 73.4 °F 62.6 °F 69% 29.90 in 10.0 mi West 5.8 mph - N/A   Mostly Cloudy
5:35 PM 75.2 °F 62.6 °F 65% 29.90 in 10.0 mi WNW 11.5 mph 18.4 mph N/A   Mostly Cloudy
5:55 PM 75.2 °F 60.8 °F 61% 29.90 in 10.0 mi NW 12.7 mph 18.4 mph N/A   Scattered Clouds
6:15 PM 73.4 °F 60.8 °F 65% 29.91 in 10.0 mi NW 12.7 mph - N/A   Partly Cloudy
6:35 PM 73.4 °F 57.2 °F 57% 29.91 in 10.0 mi WNW 13.8 mph - N/A   Clear
6:55 PM 73.4 °F 57.2 °F 57% 29.91 in 10.0 mi WNW 11.5 mph - N/A   Clear
7:15 PM 71.6 °F 55.4 °F 57% 29.92 in 10.0 mi NW 9.2 mph - N/A   Clear
7:36 PM 71.6 °F 55.4 °F 57% 29.93 in 10.0 mi NW 9.2 mph - N/A   Clear
7:55 PM 69.8 °F 57.2 °F 64% 29.93 in 10.0 mi NNW 5.8 mph - N/A   Clear
8:15 PM 69.8 °F 55.4 °F 60% 29.94 in 10.0 mi NNW 6.9 mph - N/A   Clear
8:35 PM 68.0 °F 55.4 °F 64% 29.95 in 10.0 mi NW 4.6 mph - N/A   Clear
8:55 PM 66.2 °F 55.4 °F 68% 29.95 in 10.0 mi NNW 5.8 mph - N/A   Clear
9:15 PM 66.2 °F 55.4 °F 68% 29.96 in 10.0 mi NNW 4.6 mph - N/A   Clear
9:35 PM 64.4 °F 55.4 °F 73% 29.96 in 10.0 mi NNW 4.6 mph - N/A   Clear
9:56 PM 64.4 °F 55.4 °F 73% 29.98 in 10.0 mi NNW 4.6 mph - N/A   Clear
10:15 PM 64.4 °F 55.4 °F 73% 29.98 in 10.0 mi NNW 4.6 mph - N/A   Clear
10:35 PM 62.6 °F 55.4 °F 77% 29.99 in 10.0 mi North 4.6 mph - N/A   Clear
10:55 PM 62.6 °F 55.4 °F 77% 30.00 in 10.0 mi Calm Calm - N/A   Clear
11:15 PM 62.6 °F 55.4 °F 77% 30.00 in 10.0 mi North 4.6 mph - N/A   Clear
11:35 PM 60.8 °F 55.4 °F 82% 30.00 in 10.0 mi NNW 3.5 mph - N/A   Clear